FW0798 Weather Reports


time (UTC)temp
C
wind
direction
speed
KPH
gust
KPH
rain 1hr
cm
rain 24hr
cm
rain mn
cm
humidity
%
barometer
mb
20260510095241 16 278 6.4 29.0 0.00 0.00 0.25 90 1012.1
20260510094739 16 198 11.3 29.0 0.00 0.00 0.25 90 1011.4
20260510094239 16 197 14.5 33.8 0.00 0.00 0.25 90 1010.9
20260510093739 16 159 11.3 33.8 0.00 0.00 0.23 90 1010.5
20260510093238 16 175 24.1 33.8 0.00 0.00 0.20 90 1011.4
20260510092740 16 181 20.9 29.0 0.00 0.00 0.18 89 1011.9
20260510092236 16 173 24.1 24.1 0.00 0.00 0.18 90 1012.4
20260510091739 17 185 12.9 24.1 0.00 0.00 0.18 90 1013.2
20260510091238 17 193 11.3 24.1 0.00 0.00 0.18 90 1013.6
20260510090753 17 230 12.9 19.3 0.00 0.00 0.15 90 1013.6
20260510090240 17 220 12.9 16.1 0.00 0.00 0.15 89 1013.9
20260510085739 17 266 9.7 12.9 0.00 0.00 0.13 89 1014.1
20260510085237 17 196 4.8 12.9 0.00 0.00 0.13 88 1013.9
20260510084736 17 265 1.6 22.5 0.00 0.00 0.10 88 1013.6
20260510084237 17 319 6.4 22.5 0.00 0.00 0.10 87 1013.3
20260510083737 17 334 17.7 20.9 0.00 0.00 0.08 85 1013.4
20260510083238 18 300 12.9 20.9 0.00 0.00 0.03 83 1013.7
20260510082736 18 271 20.9 19.3 0.00 0.00 0.00 79 1013.7
20260510082238 18 265 14.5 16.1 0.00 0.00 0.00 77 1013.3
20260510081735 19 275 6.4 9.7 0.00 0.00 0.00 77 1012.8
20260510081238 20 274 4.8 6.4 0.00 0.00 0.00 77 1012.9
20260510080735 20 69 1.6 6.4 0.00 0.00 0.00 76 1012.8
20260510080235 20 82 4.8 6.4 0.00 0.00 0.00 75 1012.5
20260510075734 20 90 4.8 4.8 0.00 0.00 0.00 75 1012.9
20260510075234 20 80 3.2 6.4 0.00 0.00 0.00 75 1012.9
20260510074735 20 111 3.2 6.4 0.00 0.00 0.00 74 1012.9
20260510074238 20 100 1.6 6.4 0.00 0.00 0.00 74 1012.9
20260510073736 20 123 3.2 6.4 0.00 0.00 0.00 74 1013.0
20260510073233 20 90 4.8 6.4 0.00 0.00 0.00 74 1012.9
20260510072735 20 116 3.2 6.4 0.00 0.00 0.00 74 1012.8
20260510072234 20 90 6.4 8.0 0.00 0.00 0.00 74 1012.6
20260510071734 20 84 3.2 8.0 0.00 0.00 0.00 73 1012.6
20260510071235 20 76 6.4 9.7 0.00 0.00 0.00 72 1012.7
20260510070733 20 67 6.4 14.5 0.00 0.00 0.00 71 1012.7
20260510070234 19 58 9.7 14.5 0.00 0.00 0.00 70 1012.5
20260510065737 19 59 6.4 9.7 0.00 0.00 0.00 70 1012.7
20260510065235 19 0 0.0 6.4 0.00 0.00 0.00 69 1012.8
20260510064732 19 0 0.0 6.4 0.00 0.00 0.00 69 1012.9
20260510064233 19 67 4.8 6.4 0.00 0.00 0.00 68 1012.9
20260510063733 19 51 4.8 8.0 0.00 0.00 0.00 67 1013.0
20260510063231 19 44 6.4 9.7 0.00 0.00 0.00 67 1012.8
20260510062731 19 41 6.4 12.9 0.00 0.00 0.00 67 1012.8
20260510062233 19 54 6.4 12.9 0.00 0.00 0.00 67 1012.6
20260510061732 19 55 9.7 12.9 0.00 0.00 0.00 66 1012.4
20260510061233 19 48 8.0 11.3 0.00 0.00 0.00 66 1012.4
20260510060732 19 53 8.0 11.3 0.00 0.00 0.00 65 1012.5
20260510060231 19 57 8.0 9.7 0.00 0.00 0.00 65 1012.6
20260510055730 19 55 8.0 9.7 0.00 0.00 0.00 65 1012.6
20260510055231 19 60 8.0 9.7 0.00 0.00 0.00 64 1012.7
20260510054730 19 47 8.0 9.7 0.00 0.00 0.00 63 1012.6
20260510054232 19 44 8.0 9.7 0.00 0.00 0.00 62 1012.3
20260510053737 19 36 4.8 11.3 0.00 0.00 0.00 61 1012.3
20260510053232 19 40 6.4 11.3 0.00 0.00 0.00 60 1012.2
20260510052730 19 48 8.0 11.3 0.00 0.00 0.00 60 1012.0
20260510052231 19 53 6.4 11.3 0.00 0.00 0.00 58 1012.1
20260510051731 19 53 8.0 11.3 0.00 0.00 0.00 57 1012.0
20260510051230 19 49 9.7 11.3 0.00 0.00 0.00 57 1012.0
20260510050729 20 56 8.0 9.7 0.00 0.00 0.00 56 1012.0
20260510050232 20 44 8.0 9.7 0.00 0.00 0.00 54 1012.0
20260510045729 20 34 4.8 9.7 0.00 0.00 0.00 54 1012.0
20260510045231 20 40 4.8 9.7 0.00 0.00 0.00 56 1011.8
20260510044729 19 53 8.0 9.7 0.00 0.00 0.00 55 1011.8
20260510044227 19 40 4.8 9.7 0.00 0.00 0.00 56 1011.8
20260510043728 19 47 6.4 9.7 0.00 0.00 0.00 59 1011.6
20260510043227 19 55 6.4 6.4 0.00 0.00 0.00 57 1011.6
20260510042727 20 42 4.8 8.0 0.00 0.00 0.00 56 1011.5
20260510042227 20 44 4.8 8.0 0.00 0.00 0.00 55 1011.5
20260510041728 20 37 4.8 8.0 0.00 0.00 0.00 55 1011.5
20260510041227 20 44 6.4 8.0 0.00 0.00 0.00 55 1011.6
20260510040731 20 44 6.4 8.0 0.00 0.00 0.00 54 1011.5
20260510040226 20 24 4.8 6.4 0.00 0.00 0.00 55 1011.6
20260510035729 20 30 3.2 6.4 0.00 0.00 0.00 56 1011.6
20260510035228 20 19 4.8 8.0 0.00 0.00 0.00 56 1011.6
20260510034728 20 34 4.8 8.0 0.00 0.00 0.00 56 1011.6
20260510034228 20 20 6.4 8.0 0.00 0.00 0.00 57 1011.3
20260510033726 20 38 4.8 8.0 0.00 0.00 0.00 57 1011.1
20260510033228 20 38 4.8 8.0 0.00 0.00 0.00 56 1011.2
20260510032728 20 24 3.2 8.0 0.00 0.00 0.00 57 1011.1
20260510032225 20 31 4.8 8.0 0.00 0.00 0.00 57 1011.0
20260510031728 20 30 4.8 8.0 0.00 0.00 0.00 57 1010.8
20260510031227 20 45 4.8 8.0 0.00 0.00 0.00 57 1010.7
20260510030727 21 41 6.4 8.0 0.00 0.00 0.00 55 1010.6
20260510030225 21 42 6.4 8.0 0.00 0.00 0.00 55 1010.5
20260510025726 21 58 6.4 8.0 0.00 0.00 0.00 56 1010.4
20260510025224 21 46 6.4 9.7 0.00 0.00 0.00 55 1010.4
20260510024726 21 50 6.4 9.7 0.00 0.00 0.00 55 1010.4
20260510024226 21 41 6.4 9.7 0.00 0.00 0.00 55 1010.3
20260510023727 21 57 6.4 8.0 0.00 0.00 0.00 54 1010.3
20260510023225 22 45 6.4 8.0 0.00 0.00 0.00 53 1010.3
20260510022725 22 44 4.8 8.0 0.00 0.00 0.00 53 1010.1
20260510022226 22 44 6.4 6.4 0.00 0.00 0.00 52 1010.0
20260510021726 22 45 3.2 6.4 0.00 0.00 0.00 52 1010.0
20260510021224 22 45 4.8 6.4 0.00 0.00 0.00 52 1009.8
20260510020724 22 49 4.8 6.4 0.00 0.00 0.00 51 1009.8
20260510020224 22 52 4.8 6.4 0.00 0.00 0.00 47 1009.6
20260510015725 23 61 4.8 6.4 0.00 0.00 0.00 44 1009.6
20260510015224 23 81 3.2 6.4 0.00 0.00 0.00 43 1009.6
20260510014726 23 82 4.8 6.4 0.00 0.00 0.00 42 1009.6
20260510014223 23 88 4.8 4.8 0.00 0.00 0.00 42 1009.5
20260510013723 23 89 1.6 4.8 0.00 0.00 0.00 41 1009.4
20260510013223 23 96 1.6 4.8 0.00 0.00 0.00 41 1009.5
20260510012725 23 96 1.6 3.2 0.00 0.00 0.00 40 1009.3
20260510012225 23 96 3.2 3.2 0.00 0.00 0.00 40 1009.3
20260510011726 23 96 1.6 3.2 0.00 0.00 0.00 41 1009.1
20260510011222 24 96 1.6 3.2 0.00 0.00 0.00 41 1009.0
20260510010723 24 96 1.6 4.8 0.00 0.00 0.00 41 1009.0
20260510010224 25 96 1.6 4.8 0.00 0.00 0.00 41 1009.0
20260510005722 25 104 3.2 3.2 0.00 0.00 0.00 42 1008.9
20260510005222 25 103 1.6 3.2 0.00 0.00 0.00 41 1009.0
20260510004723 25 0 0.0 3.2 0.00 0.00 0.00 40 1008.9
20260510004222 25 104 1.6 4.8 0.00 0.00 0.00 39 1008.8
20260510003720 25 103 1.6 4.8 0.00 0.00 0.00 39 1008.8
20260510003221 26 138 1.6 4.8 0.00 0.00 0.00 40 1008.7
20260510002721 26 138 3.2 4.8 0.00 0.00 0.00 39 1008.6
20260510002220 26 138 1.6 4.8 0.00 0.00 0.00 39 1008.8
20260510001723 26 139 3.2 6.4 0.00 0.00 0.00 39 1008.8
20260510001220 26 146 1.6 8.0 0.00 0.00 0.00 39 1008.9
20260510000721 26 130 3.2 8.0 0.00 0.00 0.00 41 1008.9
20260510000221 26 134 3.2 6.4 0.00 0.00 0.00 40 1009.0
20260509235719 26 138 1.6 6.4 0.00 0.00 0.00 42 1009.0
20260509235220 26 150 1.6 11.3 0.00 0.00 0.00 41 1009.0
20260509234722 26 0 0.0 11.3 0.00 0.00 0.00 38 1008.9
20260509234219 27 119 4.8 11.3 0.00 0.00 0.00 41 1008.8
20260509233719 27 126 4.8 11.3 0.00 0.00 0.00 39 1008.8
20260509233219 27 118 3.2 11.3 0.00 0.00 0.00 38 1008.8
20260509232719 27 163 1.6 9.7 0.00 0.00 0.00 37 1009.0
20260509232217 27 167 8.0 8.0 0.00 0.00 0.00 45 1008.9
20260509231717 27 141 6.4 9.7 0.00 0.00 0.00 37 1009.0
20260509231218 27 136 4.8 9.7 0.00 0.00 0.00 43 1009.0
20260509230718 27 165 6.4 9.7 0.00 0.00 0.00 42 1009.1
20260509230218 27 149 8.0 11.3 0.00 0.00 0.00 39 1009.2
20260509225720 27 113 6.4 11.3 0.00 0.00 0.00 39 1009.1
20260509225218 27 152 8.0 12.9 0.00 0.00 0.00 39 1009.1
20260509224719 28 139 6.4 12.9 0.00 0.00 0.00 42 1009.0
20260509224217 28 131 6.4 12.9 0.00 0.00 0.00 39 1009.0
20260509223718 28 153 3.2 8.0 0.00 0.00 0.00 43 1009.0
20260509223217 28 152 3.2 11.3 0.00 0.00 0.00 38 1009.0
20260509222717 28 167 6.4 11.3 0.00 0.00 0.00 38 1009.0
20260509222217 28 215 4.8 11.3 0.00 0.00 0.00 41 1009.0
20260509221718 28 165 8.0 11.3 0.00 0.00 0.00 36 1009.0
20260509221216 28 153 8.0 17.7 0.00 0.00 0.00 38 1009.0
20260509220716 28 168 8.0 17.7 0.00 0.00 0.00 34 1008.9
20260509220317 28 215 3.2 9.7 0.00 0.00 0.00 35 1008.8
20260509215815 28 175 9.7 9.7 0.00 0.00 0.00 35 1008.9
20260509215342 28 169 3.2 12.9 0.00 0.00 0.00 38 1009.0
20260509214914 28 146 1.6 14.5 0.00 0.00 0.00 33 1008.9
20260509214440 28 154 12.9 16.1 0.00 0.00 0.00 37 1008.9
20260509213916 28 184 3.2 16.1 0.00 0.00 0.00 36 1009.0
20260509213439 28 198 8.0 16.1 0.00 0.00 0.00 36 1009.0
20260509212941 28 200 4.8 9.7 0.00 0.00 0.00 35 1009.1
20260509212439 28 205 3.2 12.9 0.00 0.00 0.00 33 1009.1
20260509211937 28 103 1.6 12.9 0.00 0.00 0.00 34 1009.2
20260509211439 28 142 3.2 12.9 0.00 0.00 0.00 35 1009.1
20260509210944 28 145 4.8 16.1 0.00 0.00 0.00 39 1009.2
20260509210439 28 210 3.2 16.1 0.00 0.00 0.00 33 1009.3
20260509205941 28 0 0.0 16.1 0.00 0.00 0.00 34 1009.3
20260509205442 28 147 4.8 16.1 0.00 0.00 0.00 35 1009.3
20260509204942 28 159 6.4 16.1 0.00 0.00 0.00 34 1009.4
20260509204443 28 0 0.0 16.1 0.00 0.00 0.00 32 1009.6
20260509203941 27 173 9.7 11.3 0.00 0.00 0.00 37 1009.6
20260509203440 27 132 8.0 14.5 0.00 0.00 0.00 36 1009.7
20260509202939 28 0 0.0 14.5 0.00 0.00 0.00 32 1009.7
20260509202443 28 104 6.4 12.9 0.00 0.00 0.00 30 1009.8
20260509201939 28 131 4.8 12.9 0.00 0.00 0.00 35 1009.8
20260509201439 28 202 3.2 14.5 0.00 0.00 0.00 33 1010.1
20260509200938 28 173 9.7 14.5 0.00 0.00 0.00 32 1010.0
20260509200436 28 159 8.0 12.9 0.00 0.00 0.00 30 1010.1
20260509195943 28 217 8.0 16.1 0.00 0.00 0.00 34 1010.1
20260509195444 28 188 8.0 16.1 0.00 0.00 0.00 32 1010.2
20260509194936 27 57 1.6 17.7 0.00 0.00 0.00 34 1010.1
20260509194440 27 107 6.4 17.7 0.00 0.00 0.00 29 1010.1
20260509193940 27 152 6.4 16.1 0.00 0.00 0.00 35 1010.2
20260509193438 27 133 12.9 16.1 0.00 0.00 0.00 35 1010.1
20260509192942 27 235 3.2 16.1 0.00 0.00 0.00 35 1010.1
20260509192442 27 141 8.0 16.1 0.00 0.00 0.00 41 1010.2
20260509191939 27 153 12.9 16.1 0.00 0.00 0.00 40 1010.2
20260509191438 27 191 9.7 16.1 0.00 0.00 0.00 38 1010.2
20260509190940 27 120 6.4 16.1 0.00 0.00 0.00 39 1010.3
20260509190443 27 171 8.0 16.1 0.00 0.00 0.00 37 1010.4
20260509185939 27 204 4.8 17.7 0.00 0.00 0.00 40 1010.5
20260509185436 27 173 4.8 17.7 0.00 0.00 0.00 41 1010.4
20260509184939 27 126 11.3 17.7 0.00 0.00 0.00 41 1010.4
20260509184439 27 165 8.0 14.5 0.00 0.00 0.00 44 1010.5
20260509183941 27 134 4.8 14.5 0.00 0.00 0.00 40 1010.5
20260509183436 26 175 6.4 14.5 0.00 0.00 0.00 43 1010.5
20260509182944 27 105 12.9 14.5 0.00 0.00 0.00 41 1010.5
20260509182441 27 94 4.8 14.5 0.00 0.00 0.00 44 1010.7
20260509181940 27 163 6.4 14.5 0.00 0.00 0.00 48 1010.7
20260509181440 26 86 1.6 12.9 0.00 0.00 0.00 52 1010.6
20260509180943 26 135 4.8 12.9 0.00 0.00 0.00 53 1010.7
20260509180436 26 76 4.8 12.9 0.00 0.00 0.00 50 1010.6
20260509175941 26 92 6.4 16.1 0.00 0.00 0.00 48 1010.6
20260509175438 26 52 3.2 16.1 0.00 0.00 0.00 52 1010.6
20260509174941 26 48 11.3 14.5 0.00 0.00 0.00 49 1010.6
20260509174438 26 135 4.8 9.7 0.00 0.00 0.00 52 1010.6
20260509173942 26 61 3.2 9.7 0.00 0.00 0.00 52 1010.6
20260509173439 26 202 3.2 16.1 0.00 0.00 0.00 57 1010.6
20260509172939 26 98 4.8 16.1 0.00 0.00 0.00 63 1010.6
20260509172438 26 33 1.6 8.0 0.00 0.00 0.00 56 1010.7
20260509171944 26 0 0.0 8.0 0.00 0.00 0.00 57 1010.7
20260509171438 26 333 6.4 8.0 0.00 0.00 0.00 59 1010.7
20260509170941 26 0 0.0 12.9 0.00 0.00 0.00 68 1010.7
20260509170444 26 190 3.2 12.9 0.00 0.00 0.00 72 1010.8
20260509165938 25 151 12.9 11.3 0.00 0.00 0.00 71 1010.8
20260509165437 25 234 3.2 6.4 0.00 0.00 0.00 71 1011.0
20260509164941 24 271 1.6 11.3 0.00 0.00 0.00 70 1011.0
20260509164442 24 229 3.2 11.3 0.00 0.00 0.00 72 1010.9
20260509163940 24 148 9.7 11.3 0.00 0.00 0.00 74 1011.0
20260509163444 23 217 3.2 8.0 0.00 0.00 0.00 74 1011.1
20260509162942 23 294 1.6 11.3 0.00 0.00 0.00 76 1011.1
20260509162440 23 254 1.6 14.5 0.00 0.00 0.00 78 1011.1
20260509161942 23 302 1.6 14.5 0.00 0.00 0.00 76 1011.2
20260509161441 23 273 3.2 11.3 0.00 0.00 0.00 79 1011.1
20260509160938 23 232 4.8 11.3 0.00 0.00 0.00 80 1011.1
20260509160441 22 252 4.8 9.7 0.00 0.00 0.00 80 1011.2
20260509155939 22 277 6.4 11.3 0.00 0.00 0.00 80 1011.3
20260509155436 22 349 3.2 11.3 0.00 0.00 0.00 81 1011.1
20260509154941 22 360 3.2 9.7 0.00 0.00 0.00 81 1011.1
20260509154441 22 278 6.4 9.7 0.00 0.00 0.00 82 1011.0
20260509153919 22 269 4.8 9.7 0.00 0.00 0.00 82 1011.0
20260509153419 21 279 3.2 9.7 0.00 0.00 0.00 82 1011.0
20260509152919 21 0 0.0 9.7 0.00 0.00 0.00 82 1011.0
20260509152420 21 264 3.2 9.7 0.00 0.00 0.00 82 1011.1
20260509151921 21 277 3.2 9.7 0.00 0.00 0.00 83 1011.1
20260509151422 21 243 6.4 9.7 0.00 0.00 0.00 83 1011.1
20260509150921 21 270 4.8 9.7 0.00 0.00 0.00 82 1011.1
20260509150419 21 198 1.6 9.7 0.00 0.00 0.00 83 1011.1
20260509145919 21 250 4.8 11.3 0.00 0.00 0.00 83 1011.1
20260509145419 21 319 4.8 11.3 0.00 0.00 0.00 84 1010.9
20260509144919 21 0 0.0 6.4 0.00 0.00 0.00 83 1011.0
20260509144420 21 246 1.6 6.4 0.00 0.00 0.00 84 1011.0
20260509143918 21 0 0.0 8.0 0.00 0.00 0.00 85 1011.0
20260509143418 21 154 3.2 8.0 0.00 0.00 0.00 84 1011.1
20260509142919 20 192 3.2 6.4 0.00 0.00 0.00 86 1011.0
20260509142418 20 0 0.0 3.2 0.00 0.00 0.00 87 1011.1
20260509141917 20 188 1.6 8.0 0.00 0.00 0.00 87 1011.0
20260509141418 20 160 1.6 8.0 0.00 0.00 0.00 87 1011.1
20260509140917 19 149 6.4 8.0 0.00 0.00 0.00 88 1011.0
20260509140420 19 144 1.6 8.0 0.00 0.00 0.00 88 1011.1
20260509140018 18 163 3.2 8.0 0.00 0.00 0.00 89 1011.0
20260509135618 18 147 4.8 3.2 0.00 0.00 0.00 90 1011.0
20260509135218 18 180 1.6 8.0 0.00 0.00 0.00 90 1011.1
20260509134815 18 155 3.2 8.0 0.00 0.00 0.00 90 1011.0
20260509134338 18 160 1.6 8.0 0.00 0.00 0.00 91 1011.0
20260509133916 17 148 8.0 8.0 0.00 0.00 0.00 92 1011.0
20260509133517 17 0 0.0 0.0 0.00 0.00 0.00 92 1010.9
20260509133038 17 0 0.0 0.0 0.00 0.00 0.00 92 1010.9
20260509132540 16 0 0.0 0.0 0.00 0.00 0.00 92 1010.9
20260509132040 16 0 0.0 4.8 0.00 0.00 0.00 92 1010.8
20260509131616 16 0 0.0 4.8 0.00 0.00 0.00 92 1010.8
20260509131141 16 0 0.0 4.8 0.00 0.00 0.00 92 1010.8
20260509130642 16 40 1.6 4.8 0.00 0.00 0.00 92 1010.7
20260509130139 16 0 0.0 4.8 0.00 0.00 0.00 92 1010.6
20260509125638 16 26 1.6 8.0 0.00 0.00 0.00 93 1010.3
20260509125141 15 355 1.6 8.0 0.00 0.00 0.00 92 1010.3
20260509124641 15 355 1.6 9.7 0.00 0.00 0.00 92 1010.2
20260509124139 15 326 1.6 9.7 0.00 0.00 0.00 93 1010.3
20260509123641 15 329 3.2 6.4 0.00 0.00 0.00 93 1010.3
20260509123137 15 330 3.2 6.4 0.00 0.00 0.00 93 1010.2
20260509122638 15 336 6.4 6.4 0.00 0.00 0.00 93 1010.1
20260509122137 15 328 3.2 8.0 0.00 0.00 0.00 93 1010.0
20260509121638 15 352 4.8 8.0 0.00 0.00 0.00 93 1010.0
20260509121135 15 342 4.8 8.0 0.00 0.00 0.00 93 1009.8
20260509120641 14 346 4.8 8.0 0.00 0.00 0.00 93 1009.7
20260509120138 14 338 3.2 8.0 0.00 0.00 0.00 93 1009.6
20260509115641 14 350 4.8 8.0 0.00 0.00 0.00 93 1009.7
20260509115140 14 343 3.2 8.0 0.00 0.00 0.00 93 1009.6
20260509114641 14 348 4.8 6.4 0.00 0.00 0.00 93 1009.6
20260509114140 14 342 4.8 6.4 0.00 0.00 0.00 93 1009.6
20260509113641 14 341 4.8 6.4 0.00 0.00 0.00 93 1009.6
20260509113142 14 0 0.0 0.0 0.00 0.00 0.00 93 1009.6
20260509112636 14 0 0.0 0.0 0.00 0.00 0.00 93 1009.5
20260509112135 14 0 0.0 1.6 0.00 0.00 0.00 93 1009.5
20260509111636 14 0 0.0 1.6 0.00 0.00 0.00 92 1009.3
20260509111142 14 0 0.0 1.6 0.00 0.00 0.00 92 1009.4
20260509110641 14 0 0.0 1.6 0.00 0.00 0.00 93 1009.5
20260509110137 14 0 0.0 1.6 0.00 0.00 0.00 93 1009.6
20260509105636 14 0 0.0 1.6 0.00 0.00 0.00 93 1009.4
20260509105142 14 0 0.0 3.2 0.00 0.00 0.00 93 1009.3
20260509104641 14 0 0.0 4.8 0.00 0.00 0.00 93 1009.3
20260509104141 14 360 1.6 4.8 0.00 0.00 0.00 93 1009.2
20260509103639 14 346 3.2 4.8 0.00 0.00 0.00 93 1009.1
20260509103141 14 346 4.8 4.8 0.00 0.00 0.00 93 1009.1
20260509102642 14 340 3.2 4.8 0.00 0.00 0.00 93 1009.2
20260509102135 14 329 1.6 4.8 0.00 0.00 0.00 93 1009.0
20260509101638 14 339 1.6 6.4 0.00 0.00 0.00 93 1009.0
20260509101137 14 338 3.2 6.4 0.00 0.00 0.00 93 1009.0
20260509100639 14 338 4.8 6.4 0.00 0.00 0.00 93 1009.0
20260509100144 14 347 1.6 6.4 0.00 0.00 0.00 93 1009.0
20260509095639 14 346 3.2 6.4 0.00 0.00 0.00 93 1009.0